| time (UTC) | temp F | wind direction | speed knots | gust knots | rain 1hr in | rain 24hr in | rain mn in | humidity % | barometer mb |
| 20260507101735 | 69 | 132 | 0.0 | 0.0 | 0.00 | 0.00 | 0.00 | 31 | 1010.0 |
| 20260507101228 | 69 | 141 | 0.0 | 0.0 | 0.00 | 0.00 | 0.00 | 31 | 1010.1 |
| 20260507100722 | 68 | 148 | 0.0 | 0.0 | 0.00 | 0.00 | 0.00 | 31 | 1010.2 |
| 20260507100215 | 69 | 152 | 0.0 | 0.0 | 0.00 | 0.00 | 0.00 | 31 | 1010.2 |
| 20260507095710 | 69 | 152 | 0.0 | 0.0 | 0.00 | 0.00 | 0.00 | 30 | 1010.2 |
| 20260507095204 | 70 | 152 | 0.0 | 0.0 | 0.00 | 0.00 | 0.00 | 30 | 1010.2 |
| 20260507094658 | 70 | 199 | 0.0 | 0.0 | 0.00 | 0.00 | 0.00 | 30 | 1010.3 |
| 20260507094152 | 69 | 258 | 0.0 | 0.0 | 0.00 | 0.00 | 0.00 | 31 | 1010.3 |
| 20260507094127 | 70 | 258 | 0.0 | 0.0 | 0.00 | 0.00 | 0.00 | 31 | 1010.3 |
| 20260507093141 | 70 | 258 | 0.0 | 0.0 | 0.00 | 0.00 | 0.00 | 31 | 1010.3 |
| 20260507093117 | 70 | 258 | 0.0 | 0.0 | 0.00 | 0.00 | 0.00 | 30 | 1010.3 |
| 20260507092128 | 71 | 258 | 0.0 | 1.7 | 0.00 | 0.00 | 0.00 | 30 | 1010.3 |
| 20260507092113 | 71 | 258 | 0.0 | 1.7 | 0.00 | 0.00 | 0.00 | 30 | 1010.3 |
| 20260507091115 | 70 | 275 | 0.0 | 0.9 | 0.00 | 0.00 | 0.00 | 31 | 1010.4 |
| 20260507090607 | 70 | 301 | 0.0 | 0.9 | 0.00 | 0.00 | 0.00 | 30 | 1010.5 |
| 20260507085556 | 71 | 26 | 0.0 | 0.9 | 0.00 | 0.00 | 0.00 | 31 | 1010.4 |
| 20260507085050 | 71 | 26 | 0.0 | 0.9 | 0.00 | 0.00 | 0.00 | 31 | 1010.4 |
| 20260507084543 | 71 | 202 | 0.0 | 0.9 | 0.00 | 0.00 | 0.00 | 29 | 1010.5 |
| 20260507084038 | 72 | 184 | 0.0 | 0.9 | 0.00 | 0.00 | 0.00 | 28 | 1010.4 |
| 20260507083533 | 71 | 245 | 0.0 | 0.9 | 0.00 | 0.00 | 0.00 | 28 | 1010.5 |
| 20260507083026 | 71 | 219 | 0.0 | 0.9 | 0.00 | 0.00 | 0.00 | 28 | 1010.4 |
| 20260507082520 | 72 | 222 | 0.0 | 1.7 | 0.00 | 0.00 | 0.00 | 28 | 1010.5 |
| 20260507082014 | 72 | 225 | 0.0 | 2.6 | 0.00 | 0.00 | 0.00 | 28 | 1010.5 |
| 20260507081958 | 72 | 191 | 0.0 | 2.6 | 0.00 | 0.00 | 0.00 | 28 | 1010.6 |
| 20260507081005 | 72 | 209 | 0.0 | 1.7 | 0.00 | 0.00 | 0.00 | 28 | 1010.6 |
| 20260507080505 | 71 | 186 | 0.0 | 1.7 | 0.00 | 0.00 | 0.00 | 28 | 1010.6 |
| 20260507080004 | 71 | 162 | 0.0 | 1.7 | 0.00 | 0.00 | 0.00 | 28 | 1010.6 |
| 20260507075505 | 72 | 187 | 0.0 | 1.7 | 0.00 | 0.00 | 0.00 | 28 | 1010.6 |
| 20260507075003 | 72 | 195 | 0.0 | 1.7 | 0.00 | 0.00 | 0.00 | 28 | 1010.5 |
| 20260507074503 | 72 | 172 | 0.0 | 1.7 | 0.00 | 0.00 | 0.00 | 28 | 1010.6 |
| 20260507074004 | 72 | 184 | 0.0 | 1.7 | 0.00 | 0.00 | 0.00 | 28 | 1010.6 |
| 20260507073502 | 72 | 166 | 0.0 | 1.7 | 0.00 | 0.00 | 0.00 | 28 | 1010.6 |
| 20260507072959 | 72 | 176 | 0.0 | 1.7 | 0.00 | 0.00 | 0.00 | 28 | 1010.6 |
| 20260507072458 | 72 | 179 | 0.0 | 1.7 | 0.00 | 0.00 | 0.00 | 28 | 1010.6 |
| 20260507071957 | 72 | 180 | 0.0 | 0.0 | 0.00 | 0.00 | 0.00 | 28 | 1010.6 |
| 20260507071455 | 73 | 180 | 0.0 | 0.0 | 0.00 | 0.00 | 0.00 | 28 | 1010.6 |
| 20260507070955 | 73 | 184 | 0.0 | 0.0 | 0.00 | 0.00 | 0.00 | 28 | 1010.5 |
| 20260507070453 | 73 | 184 | 0.0 | 0.0 | 0.00 | 0.00 | 0.00 | 28 | 1010.5 |
| 20260507065951 | 73 | 204 | 0.0 | 0.0 | 0.00 | 0.00 | 0.00 | 28 | 1010.6 |
| 20260507065449 | 73 | 188 | 0.0 | 1.7 | 0.00 | 0.00 | 0.00 | 27 | 1010.6 |
| 20260507064949 | 74 | 155 | 0.0 | 1.7 | 0.00 | 0.00 | 0.00 | 27 | 1010.6 |
| 20260507064451 | 73 | 191 | 0.0 | 0.9 | 0.00 | 0.00 | 0.00 | 27 | 1010.6 |
| 20260507063947 | 74 | 186 | 0.0 | 0.9 | 0.00 | 0.00 | 0.00 | 27 | 1010.6 |
| 20260507063451 | 74 | 190 | 0.0 | 0.9 | 0.00 | 0.00 | 0.00 | 27 | 1010.6 |
| 20260507063429 | 74 | 166 | 0.0 | 0.9 | 0.00 | 0.00 | 0.00 | 27 | 1010.6 |
| 20260507062935 | 74 | 203 | 0.0 | 0.9 | 0.00 | 0.00 | 0.00 | 27 | 1010.6 |
| 20260507062424 | 74 | 198 | 0.0 | 0.9 | 0.00 | 0.00 | 0.00 | 27 | 1010.6 |
| 20260507061427 | 74 | 185 | 0.0 | 0.9 | 0.00 | 0.00 | 0.00 | 27 | 1010.6 |
| 20260507061410 | 75 | 191 | 0.0 | 0.9 | 0.00 | 0.00 | 0.00 | 26 | 1010.6 |
| 20260507060900 | 75 | 207 | 0.0 | 1.7 | 0.00 | 0.00 | 0.00 | 26 | 1010.7 |
| 20260507055906 | 75 | 169 | 0.0 | 2.6 | 0.00 | 0.00 | 0.00 | 26 | 1010.6 |
| 20260507055401 | 75 | 193 | 0.0 | 2.6 | 0.00 | 0.00 | 0.00 | 26 | 1010.6 |
| 20260507055335 | 76 | 207 | 0.9 | 3.5 | 0.00 | 0.00 | 0.00 | 25 | 1010.6 |
| 20260507054348 | 76 | 210 | 0.9 | 3.5 | 0.00 | 0.00 | 0.00 | 25 | 1010.6 |
| 20260507053843 | 76 | 200 | 0.9 | 2.6 | 0.00 | 0.00 | 0.00 | 25 | 1010.6 |
| 20260507053337 | 76 | 169 | 0.9 | 2.6 | 0.00 | 0.00 | 0.00 | 25 | 1010.6 |
| 20260507052831 | 76 | 195 | 0.9 | 2.6 | 0.00 | 0.00 | 0.00 | 25 | 1010.5 |
| 20260507052325 | 76 | 197 | 0.9 | 2.6 | 0.00 | 0.00 | 0.00 | 25 | 1010.5 |
| 20260507051819 | 76 | 209 | 0.0 | 2.6 | 0.00 | 0.00 | 0.00 | 26 | 1010.5 |
| 20260507051752 | 75 | 162 | 0.0 | 0.9 | 0.00 | 0.00 | 0.00 | 26 | 1010.5 |
| 20260507051254 | 76 | 166 | 0.0 | 0.9 | 0.00 | 0.00 | 0.00 | 26 | 1010.5 |
| 20260507050742 | 76 | 167 | 0.0 | 0.9 | 0.00 | 0.00 | 0.00 | 26 | 1010.5 |
| 20260507045755 | 76 | 186 | 0.0 | 0.9 | 0.00 | 0.00 | 0.00 | 26 | 1010.5 |
| 20260507045249 | 76 | 179 | 0.0 | 0.9 | 0.00 | 0.00 | 0.00 | 26 | 1010.5 |
| 20260507044743 | 76 | 163 | 0.0 | 0.9 | 0.00 | 0.00 | 0.00 | 25 | 1010.4 |
| 20260507044718 | 76 | 174 | 0.0 | 0.9 | 0.00 | 0.00 | 0.00 | 25 | 1010.3 |
| 20260507043730 | 76 | 175 | 0.0 | 0.9 | 0.00 | 0.00 | 0.00 | 25 | 1010.3 |
| 20260507043225 | 76 | 195 | 0.0 | 0.9 | 0.00 | 0.00 | 0.00 | 25 | 1010.3 |
| 20260507042718 | 76 | 180 | 0.0 | 1.7 | 0.00 | 0.00 | 0.00 | 25 | 1010.3 |
| 20260507042213 | 76 | 197 | 0.9 | 1.7 | 0.00 | 0.00 | 0.00 | 25 | 1010.3 |
| 20260507041706 | 76 | 174 | 0.9 | 1.7 | 0.00 | 0.00 | 0.00 | 25 | 1010.2 |
| 20260507041650 | 76 | 188 | 0.0 | 0.9 | 0.00 | 0.00 | 0.00 | 25 | 1010.1 |
| 20260507040655 | 76 | 192 | 0.0 | 0.9 | 0.00 | 0.00 | 0.00 | 25 | 1010.0 |
| 20260507040148 | 76 | 162 | 0.0 | 0.9 | 0.00 | 0.00 | 0.00 | 25 | 1010.0 |
| 20260507035642 | 76 | 165 | 0.0 | 0.0 | 0.00 | 0.00 | 0.00 | 25 | 1009.9 |
| 20260507035622 | 77 | 165 | 0.0 | 0.0 | 0.00 | 0.00 | 0.00 | 25 | 1009.8 |
| 20260507035114 | 77 | 165 | 0.0 | 0.0 | 0.00 | 0.00 | 0.00 | 25 | 1009.8 |
| 20260507034125 | 77 | 167 | 0.0 | 0.0 | 0.00 | 0.00 | 0.00 | 24 | 1009.7 |
| 20260507033618 | 77 | 170 | 0.0 | 1.7 | 0.00 | 0.00 | 0.00 | 24 | 1009.6 |
| 20260507033113 | 77 | 199 | 0.0 | 1.7 | 0.00 | 0.00 | 0.00 | 25 | 1009.6 |
| 20260507032607 | 77 | 162 | 0.0 | 0.0 | 0.00 | 0.00 | 0.00 | 25 | 1009.5 |
| 20260507032100 | 78 | 193 | 0.0 | 1.7 | 0.00 | 0.00 | 0.00 | 24 | 1009.4 |
| 20260507031555 | 78 | 191 | 0.0 | 2.6 | 0.00 | 0.00 | 0.00 | 24 | 1009.3 |
| 20260507031049 | 78 | 196 | 0.0 | 2.6 | 0.00 | 0.00 | 0.00 | 24 | 1009.3 |
| 20260507030543 | 78 | 169 | 0.0 | 2.6 | 0.00 | 0.00 | 0.00 | 24 | 1009.2 |
| 20260507030037 | 78 | 186 | 0.0 | 1.7 | 0.00 | 0.00 | 0.00 | 24 | 1009.2 |
| 20260507025531 | 78 | 194 | 0.0 | 2.6 | 0.00 | 0.00 | 0.00 | 24 | 1009.1 |
| 20260507025520 | 78 | 201 | 0.0 | 2.6 | 0.00 | 0.00 | 0.00 | 24 | 1009.1 |
| 20260507024528 | 78 | 163 | 0.0 | 1.7 | 0.00 | 0.00 | 0.00 | 24 | 1009.0 |
| 20260507024027 | 78 | 184 | 0.0 | 1.7 | 0.00 | 0.00 | 0.00 | 24 | 1009.0 |
| 20260507023525 | 78 | 187 | 0.0 | 1.7 | 0.00 | 0.00 | 0.00 | 24 | 1008.9 |
| 20260507023025 | 79 | 124 | 0.0 | 1.7 | 0.00 | 0.00 | 0.00 | 24 | 1008.9 |
| 20260507022521 | 79 | 164 | 0.0 | 1.7 | 0.00 | 0.00 | 0.00 | 24 | 1008.9 |
| 20260507022020 | 79 | 167 | 0.0 | 2.6 | 0.00 | 0.00 | 0.00 | 24 | 1008.8 |
| 20260507021517 | 80 | 185 | 0.0 | 2.6 | 0.00 | 0.00 | 0.00 | 23 | 1008.9 |
| 20260507021018 | 80 | 188 | 0.0 | 1.7 | 0.00 | 0.00 | 0.00 | 23 | 1008.8 |
| 20260507020517 | 80 | 143 | 0.0 | 3.5 | 0.00 | 0.00 | 0.00 | 23 | 1008.8 |
| 20260507020016 | 81 | 198 | 0.0 | 3.5 | 0.00 | 0.00 | 0.00 | 23 | 1008.8 |
| 20260507015517 | 81 | 174 | 0.0 | 4.3 | 0.00 | 0.00 | 0.00 | 23 | 1008.7 |
| 20260507015015 | 81 | 207 | 0.9 | 4.3 | 0.00 | 0.00 | 0.00 | 23 | 1008.7 |
| 20260507014515 | 81 | 210 | 0.0 | 2.6 | 0.00 | 0.00 | 0.00 | 22 | 1008.7 |
| 20260507014457 | 82 | 226 | 0.0 | 2.6 | 0.00 | 0.00 | 0.00 | 23 | 1008.7 |
| 20260507013515 | 82 | 202 | 0.0 | 3.5 | 0.00 | 0.00 | 0.00 | 22 | 1008.6 |
| 20260507013019 | 83 | 157 | 0.0 | 3.5 | 0.00 | 0.00 | 0.00 | 22 | 1008.6 |
| 20260507012513 | 83 | 193 | 0.9 | 5.2 | 0.00 | 0.00 | 0.00 | 22 | 1008.6 |
| 20260507012011 | 83 | 178 | 0.9 | 5.2 | 0.00 | 0.00 | 0.00 | 21 | 1008.6 |
| 20260507011511 | 83 | 186 | 0.9 | 3.5 | 0.00 | 0.00 | 0.00 | 21 | 1008.5 |
| 20260507011012 | 84 | 185 | 0.9 | 4.3 | 0.00 | 0.00 | 0.00 | 21 | 1008.5 |
| 20260507010511 | 84 | 105 | 0.0 | 4.3 | 0.00 | 0.00 | 0.00 | 21 | 1008.6 |
| 20260507010011 | 85 | 137 | 0.0 | 2.6 | 0.00 | 0.00 | 0.00 | 21 | 1008.7 |
| 20260507005511 | 85 | 209 | 0.0 | 2.6 | 0.00 | 0.00 | 0.00 | 21 | 1008.6 |
| 20260507005012 | 85 | 108 | 0.9 | 4.3 | 0.00 | 0.00 | 0.00 | 20 | 1008.6 |
| 20260507004511 | 85 | 180 | 0.9 | 4.3 | 0.00 | 0.00 | 0.00 | 20 | 1008.6 |
| 20260507004012 | 85 | 217 | 0.9 | 5.2 | 0.00 | 0.00 | 0.00 | 21 | 1008.6 |
| 20260507003512 | 85 | 84 | 0.9 | 5.2 | 0.00 | 0.00 | 0.00 | 21 | 1008.6 |
| 20260507003012 | 85 | 231 | 0.9 | 3.5 | 0.00 | 0.00 | 0.00 | 20 | 1008.6 |
| 20260507002508 | 85 | 177 | 0.9 | 5.2 | 0.00 | 0.00 | 0.00 | 21 | 1008.6 |
| 20260507002009 | 84 | 47 | 0.0 | 5.2 | 0.00 | 0.00 | 0.00 | 21 | 1008.5 |
| 20260507001508 | 84 | 30 | 0.9 | 5.2 | 0.00 | 0.00 | 0.00 | 20 | 1008.5 |
| 20260507001009 | 85 | 108 | 0.9 | 5.2 | 0.00 | 0.00 | 0.00 | 20 | 1008.6 |
| 20260507000509 | 85 | 195 | 1.7 | 6.1 | 0.00 | 0.00 | 0.00 | 20 | 1008.6 |
| 20260507000458 | 86 | 219 | 1.7 | 6.1 | 0.00 | 0.00 | 0.00 | 20 | 1008.6 |
| 20260506235958 | 86 | 126 | 0.9 | 5.2 | 0.00 | 0.00 | 0.00 | 20 | 1008.5 |
| 20260506235008 | 86 | 214 | 0.9 | 5.2 | 0.00 | 0.00 | 0.00 | 20 | 1008.6 |
| 20260506234510 | 86 | 176 | 0.0 | 3.5 | 0.00 | 0.00 | 0.00 | 19 | 1008.7 |
| 20260506234010 | 85 | 233 | 0.0 | 3.5 | 0.00 | 0.00 | 0.00 | 20 | 1008.6 |
| 20260506233509 | 86 | 312 | 0.9 | 3.5 | 0.00 | 0.00 | 0.00 | 19 | 1008.7 |
| 20260506233456 | 87 | 189 | 0.9 | 4.3 | 0.00 | 0.00 | 0.00 | 19 | 1008.9 |
| 20260506232509 | 87 | 277 | 0.9 | 4.3 | 0.00 | 0.00 | 0.00 | 19 | 1008.8 |
| 20260506232008 | 87 | 212 | 0.9 | 4.3 | 0.00 | 0.00 | 0.00 | 18 | 1008.9 |
| 20260506231508 | 88 | 161 | 0.9 | 4.3 | 0.00 | 0.00 | 0.00 | 18 | 1008.9 |
| 20260506231451 | 88 | 188 | 0.0 | 3.5 | 0.00 | 0.00 | 0.00 | 18 | 1009.0 |
| 20260506230508 | 88 | 259 | 0.0 | 3.5 | 0.00 | 0.00 | 0.00 | 18 | 1009.1 |
| 20260506230009 | 89 | 207 | 0.9 | 3.5 | 0.00 | 0.00 | 0.00 | 18 | 1009.1 |
| 20260506225956 | 88 | 156 | 0.9 | 3.5 | 0.00 | 0.00 | 0.00 | 18 | 1009.1 |
| 20260506225006 | 88 | 223 | 0.9 | 3.5 | 0.00 | 0.00 | 0.00 | 18 | 1009.1 |
| 20260506224504 | 88 | 222 | 0.0 | 3.5 | 0.00 | 0.00 | 0.00 | 19 | 1009.2 |
| 20260506224449 | 88 | 196 | 0.0 | 3.5 | 0.00 | 0.00 | 0.00 | 18 | 1009.3 |
| 20260506223502 | 87 | 148 | 0.9 | 3.5 | 0.00 | 0.00 | 0.00 | 19 | 1009.3 |
| 20260506223001 | 87 | 172 | 0.9 | 4.3 | 0.00 | 0.00 | 0.00 | 19 | 1009.3 |
| 20260506222504 | 87 | 206 | 0.9 | 5.2 | 0.00 | 0.00 | 0.00 | 19 | 1009.4 |
| 20260506222000 | 88 | 203 | 1.7 | 5.2 | 0.00 | 0.00 | 0.00 | 18 | 1009.4 |
| 20260506221500 | 88 | 191 | 1.7 | 5.2 | 0.00 | 0.00 | 0.00 | 18 | 1009.6 |
| 20260506221001 | 88 | 169 | 0.9 | 5.2 | 0.00 | 0.00 | 0.00 | 19 | 1009.6 |
| 20260506220501 | 88 | 244 | 0.9 | 5.2 | 0.00 | 0.00 | 0.00 | 18 | 1009.7 |
| 20260506220004 | 89 | 75 | 0.0 | 5.2 | 0.00 | 0.00 | 0.00 | 18 | 1009.7 |
| 20260506215959 | 89 | 158 | 0.0 | 4.3 | 0.00 | 0.00 | 0.00 | 18 | 1009.7 |
| 20260506215000 | 87 | 229 | 0.9 | 4.3 | 0.00 | 0.00 | 0.00 | 19 | 1009.8 |
| 20260506214501 | 86 | 184 | 1.7 | 5.2 | 0.00 | 0.00 | 0.00 | 20 | 1010.0 |
| 20260506214001 | 87 | 95 | 1.7 | 5.2 | 0.00 | 0.00 | 0.00 | 19 | 1010.1 |
| 20260506213946 | 87 | 130 | 0.9 | 3.5 | 0.00 | 0.00 | 0.00 | 19 | 1010.2 |
| 20260506212955 | 88 | 262 | 0.9 | 2.6 | 0.00 | 0.00 | 0.00 | 19 | 1010.3 |
| 20260506212449 | 88 | 187 | 0.9 | 3.5 | 0.00 | 0.00 | 0.00 | 19 | 1010.4 |
| 20260506211943 | 87 | 184 | 0.9 | 4.3 | 0.00 | 0.00 | 0.00 | 19 | 1010.5 |
| 20260506211928 | 88 | 210 | 0.9 | 4.3 | 0.00 | 0.00 | 0.00 | 19 | 1010.5 |
| 20260506210932 | 87 | 186 | 0.9 | 4.3 | 0.00 | 0.00 | 0.00 | 19 | 1010.6 |
| 20260506210432 | 86 | 64 | 1.7 | 4.3 | 0.00 | 0.00 | 0.00 | 19 | 1010.7 |
| 20260506205933 | 87 | 238 | 0.9 | 5.2 | 0.00 | 0.00 | 0.00 | 19 | 1010.8 |
| 20260506205430 | 88 | 82 | 0.9 | 5.2 | 0.00 | 0.00 | 0.00 | 19 | 1010.8 |
| 20260506205423 | 87 | 190 | 0.9 | 4.3 | 0.00 | 0.00 | 0.00 | 19 | 1011.0 |
| 20260506204430 | 87 | 259 | 0.9 | 4.3 | 0.00 | 0.00 | 0.00 | 19 | 1011.0 |
| 20260506203932 | 87 | 188 | 0.9 | 5.2 | 0.00 | 0.00 | 0.00 | 20 | 1011.2 |
| 20260506203431 | 87 | 161 | 0.9 | 5.2 | 0.00 | 0.00 | 0.00 | 19 | 1011.2 |
| 20260506202929 | 86 | 86 | 0.9 | 4.3 | 0.00 | 0.00 | 0.00 | 20 | 1011.2 |
| 20260506202907 | 86 | 236 | 0.9 | 7.0 | 0.00 | 0.00 | 0.00 | 20 | 1011.3 |
| 20260506201928 | 85 | 208 | 1.7 | 7.0 | 0.00 | 0.00 | 0.00 | 21 | 1011.3 |
| 20260506201429 | 85 | 185 | 0.9 | 5.2 | 0.00 | 0.00 | 0.00 | 20 | 1011.3 |
| 20260506200929 | 85 | 209 | 0.9 | 5.2 | 0.00 | 0.00 | 0.00 | 21 | 1011.4 |
| 20260506200426 | 85 | 173 | 0.9 | 5.2 | 0.00 | 0.00 | 0.00 | 21 | 1011.3 |
| 20260506195929 | 85 | 236 | 0.9 | 3.5 | 0.00 | 0.00 | 0.00 | 21 | 1011.6 |
| 20260506195429 | 85 | 71 | 0.9 | 4.3 | 0.00 | 0.00 | 0.00 | 20 | 1011.5 |
| 20260506195411 | 84 | 103 | 1.7 | 4.3 | 0.00 | 0.00 | 0.00 | 21 | 1011.5 |
| 20260506194430 | 84 | 162 | 0.9 | 4.3 | 0.00 | 0.00 | 0.00 | 21 | 1011.6 |
| 20260506193923 | 85 | 28 | 0.9 | 4.3 | 0.00 | 0.00 | 0.00 | 20 | 1011.7 |
| 20260506193859 | 85 | 124 | 0.9 | 5.2 | 0.00 | 0.00 | 0.00 | 20 | 1011.7 |
| 20260506192912 | 85 | 198 | 0.9 | 5.2 | 0.00 | 0.00 | 0.00 | 21 | 1011.8 |
| 20260506192406 | 86 | 146 | 0.9 | 3.5 | 0.00 | 0.00 | 0.00 | 21 | 1011.9 |
| 20260506191900 | 85 | 193 | 0.9 | 4.3 | 0.00 | 0.00 | 0.00 | 21 | 1011.7 |
| 20260506191354 | 85 | 86 | 0.9 | 4.3 | 0.00 | 0.00 | 0.00 | 21 | 1011.8 |
| 20260506190848 | 85 | 123 | 0.9 | 2.6 | 0.00 | 0.00 | 0.00 | 22 | 1011.8 |
| 20260506190348 | 84 | 204 | 0.9 | 4.3 | 0.00 | 0.00 | 0.00 | 22 | 1012.0 |
| 20260506185846 | 84 | 49 | 0.9 | 4.3 | 0.00 | 0.00 | 0.00 | 22 | 1012.0 |
| 20260506185347 | 85 | 340 | 0.9 | 4.3 | 0.00 | 0.00 | 0.00 | 22 | 1012.0 |
| 20260506185335 | 84 | 160 | 0.9 | 4.3 | 0.00 | 0.00 | 0.00 | 22 | 1012.1 |
| 20260506184345 | 84 | 103 | 0.9 | 4.3 | 0.00 | 0.00 | 0.00 | 22 | 1012.1 |
| 20260506183847 | 84 | 228 | 0.9 | 4.3 | 0.00 | 0.00 | 0.00 | 22 | 1012.3 |
| 20260506183344 | 84 | 257 | 0.9 | 4.3 | 0.00 | 0.00 | 0.00 | 22 | 1012.4 |
| 20260506182844 | 83 | 200 | 0.9 | 5.2 | 0.00 | 0.00 | 0.00 | 24 | 1012.5 |
| 20260506182344 | 82 | 86 | 0.9 | 5.2 | 0.00 | 0.00 | 0.00 | 24 | 1012.5 |
| 20260506181847 | 82 | 103 | 0.9 | 5.2 | 0.00 | 0.00 | 0.00 | 24 | 1012.6 |
| 20260506181345 | 83 | 103 | 0.9 | 5.2 | 0.00 | 0.00 | 0.00 | 24 | 1012.7 |
| 20260506180846 | 83 | 115 | 1.7 | 5.2 | 0.00 | 0.00 | 0.00 | 24 | 1012.7 |
| 20260506180345 | 82 | 169 | 1.7 | 5.2 | 0.00 | 0.00 | 0.00 | 24 | 1012.8 |
| 20260506175843 | 83 | 203 | 0.9 | 3.5 | 0.00 | 0.00 | 0.00 | 25 | 1012.8 |
| 20260506175345 | 83 | 255 | 0.0 | 3.5 | 0.00 | 0.00 | 0.00 | 25 | 1012.8 |
| 20260506174842 | 82 | 79 | 0.0 | 1.7 | 0.00 | 0.00 | 0.00 | 25 | 1012.8 |
| 20260506174829 | 83 | 209 | 0.0 | 3.5 | 0.00 | 0.00 | 0.00 | 25 | 1012.8 |
| 20260506173839 | 82 | 162 | 0.9 | 4.3 | 0.00 | 0.00 | 0.00 | 25 | 1012.9 |
| 20260506173339 | 82 | 188 | 0.9 | 4.3 | 0.00 | 0.00 | 0.00 | 25 | 1012.8 |
| 20260506172838 | 81 | 190 | 0.9 | 4.3 | 0.00 | 0.00 | 0.00 | 26 | 1012.8 |
| 20260506172340 | 82 | 214 | 0.0 | 4.3 | 0.00 | 0.00 | 0.00 | 26 | 1012.7 |
| 20260506171838 | 82 | 81 | 0.0 | 1.7 | 0.00 | 0.00 | 0.00 | 26 | 1012.7 |
| 20260506171338 | 81 | 135 | 0.0 | 2.6 | 0.00 | 0.00 | 0.00 | 26 | 1012.7 |
| 20260506171325 | 81 | 186 | 0.0 | 2.6 | 0.00 | 0.00 | 0.00 | 27 | 1012.7 |
| 20260506170337 | 79 | 205 | 0.9 | 3.5 | 0.00 | 0.00 | 0.00 | 27 | 1012.7 |
| 20260506165836 | 79 | 102 | 0.9 | 3.5 | 0.00 | 0.00 | 0.00 | 27 | 1012.7 |
| 20260506165337 | 79 | 195 | 0.0 | 5.2 | 0.00 | 0.00 | 0.00 | 28 | 1012.7 |
| 20260506164836 | 79 | 79 | 0.0 | 5.2 | 0.00 | 0.00 | 0.00 | 28 | 1012.8 |
| 20260506164337 | 78 | 96 | 0.9 | 5.2 | 0.00 | 0.00 | 0.00 | 28 | 1012.7 |
| 20260506163834 | 78 | 191 | 0.9 | 5.2 | 0.00 | 0.00 | 0.00 | 28 | 1012.6 |
| 20260506163333 | 78 | 251 | 0.0 | 3.5 | 0.00 | 0.00 | 0.00 | 28 | 1012.7 |
| 20260506162835 | 77 | 258 | 0.0 | 3.5 | 0.00 | 0.00 | 0.00 | 29 | 1012.6 |
| 20260506162332 | 77 | 114 | 0.9 | 3.5 | 0.00 | 0.00 | 0.00 | 29 | 1012.5 |
| 20260506161833 | 77 | 210 | 0.0 | 2.6 | 0.00 | 0.00 | 0.00 | 29 | 1012.5 |
| 20260506161814 | 77 | 173 | 0.0 | 2.6 | 0.00 | 0.00 | 0.00 | 29 | 1012.4 |
| 20260506160828 | 77 | 13 | 0.0 | 2.6 | 0.00 | 0.00 | 0.00 | 29 | 1012.5 |
| 20260506160329 | 76 | 86 | 0.0 | 1.7 | 0.00 | 0.00 | 0.00 | 30 | 1012.4 |
| 20260506155824 | 76 | 209 | 0.0 | 1.7 | 0.00 | 0.00 | 0.00 | 30 | 1012.4 |
| 20260506155327 | 76 | 263 | 0.0 | 1.7 | 0.00 | 0.00 | 0.00 | 30 | 1012.5 |
| 20260506154822 | 76 | 224 | 0.0 | 1.7 | 0.00 | 0.00 | 0.00 | 30 | 1012.5 |
| 20260506154324 | 76 | 228 | 0.0 | 2.6 | 0.00 | 0.00 | 0.00 | 31 | 1012.4 |
| 20260506153821 | 75 | 157 | 0.0 | 2.6 | 0.00 | 0.00 | 0.00 | 31 | 1012.5 |
| 20260506153322 | 74 | 248 | 0.0 | 1.7 | 0.00 | 0.00 | 0.00 | 32 | 1012.5 |
| 20260506153306 | 74 | 233 | 0.0 | 1.7 | 0.00 | 0.00 | 0.00 | 32 | 1012.6 |
| 20260506152321 | 73 | 185 | 0.9 | 2.6 | 0.00 | 0.00 | 0.00 | 33 | 1012.5 |
| 20260506151822 | 74 | 270 | 0.0 | 2.6 | 0.00 | 0.00 | 0.00 | 33 | 1012.6 |
| 20260506151759 | 73 | 98 | 0.0 | 1.7 | 0.00 | 0.00 | 0.00 | 33 | 1012.5 |
| 20260506150821 | 73 | 181 | 0.0 | 2.6 | 0.00 | 0.00 | 0.00 | 33 | 1012.6 |
| 20260506150813 | 73 | 212 | 0.0 | 2.6 | 0.00 | 0.00 | 0.00 | 34 | 1012.7 |
| 20260506145822 | 73 | 290 | 0.0 | 0.9 | 0.00 | 0.00 | 0.00 | 34 | 1012.7 |
| 20260506145323 | 73 | 200 | 0.0 | 1.7 | 0.00 | 0.00 | 0.00 | 34 | 1012.6 |
| 20260506144823 | 72 | 2 | 0.0 | 1.7 | 0.00 | 0.00 | 0.00 | 34 | 1012.5 |
| 20260506144323 | 72 | 255 | 0.0 | 0.9 | 0.00 | 0.00 | 0.00 | 35 | 1012.5 |
| 20260506144306 | 72 | 263 | 0.0 | 0.9 | 0.00 | 0.00 | 0.00 | 35 | 1012.6 |
| 20260506143318 | 71 | 165 | 0.0 | 0.9 | 0.00 | 0.00 | 0.00 | 35 | 1012.4 |
| 20260506142818 | 71 | 323 | 0.0 | 0.0 | 0.00 | 0.00 | 0.00 | 36 | 1012.3 |
| 20260506142809 | 70 | 335 | 0.0 | 0.0 | 0.00 | 0.00 | 0.00 | 37 | 1012.2 |
| 20260506141815 | 69 | 20 | 0.0 | 0.9 | 0.00 | 0.00 | 0.00 | 39 | 1012.3 |
| 20260506141317 | 68 | 19 | 0.0 | 0.9 | 0.00 | 0.00 | 0.00 | 40 | 1012.2 |
| 20260506140817 | 67 | 252 | 0.0 | 2.6 | 0.00 | 0.00 | 0.00 | 42 | 1012.1 |
| 20260506140315 | 67 | 358 | 0.0 | 2.6 | 0.00 | 0.00 | 0.00 | 43 | 1012.1 |
| 20260506135815 | 67 | 346 | 0.0 | 1.7 | 0.00 | 0.00 | 0.00 | 44 | 1012.0 |
| 20260506135311 | 66 | 43 | 0.0 | 1.7 | 0.00 | 0.00 | 0.00 | 44 | 1011.9 |
| 20260506134814 | 66 | 14 | 0.0 | 0.9 | 0.00 | 0.00 | 0.00 | 44 | 1011.9 |
| 20260506134311 | 67 | 338 | 0.0 | 0.9 | 0.00 | 0.00 | 0.00 | 43 | 1011.7 |
| 20260506133809 | 66 | 232 | 0.0 | 0.9 | 0.00 | 0.00 | 0.00 | 43 | 1011.7 |
| 20260506133307 | 65 | 232 | 0.0 | 0.9 | 0.00 | 0.00 | 0.00 | 43 | 1011.6 |
| 20260506132808 | 64 | 236 | 0.0 | 0.9 | 0.00 | 0.00 | 0.00 | 42 | 1011.6 |
| 20260506132301 | 64 | 201 | 0.0 | 0.9 | 0.00 | 0.00 | 0.00 | 43 | 1011.6 |
| 20260506131756 | 63 | 210 | 0.0 | 0.9 | 0.00 | 0.00 | 0.00 | 43 | 1011.6 |
| 20260506131250 | 63 | 184 | 0.0 | 0.0 | 0.00 | 0.00 | 0.00 | 44 | 1011.6 |
| 20260506130744 | 62 | 184 | 0.0 | 0.0 | 0.00 | 0.00 | 0.00 | 45 | 1011.5 |
| 20260506130238 | 62 | 176 | 0.0 | 0.0 | 0.00 | 0.00 | 0.00 | 46 | 1011.4 |
| 20260506125732 | 61 | 176 | 0.0 | 0.0 | 0.00 | 0.00 | 0.00 | 46 | 1011.4 |
| 20260506125226 | 61 | 176 | 0.0 | 0.0 | 0.00 | 0.00 | 0.00 | 47 | 1011.3 |
| 20260506124720 | 60 | 176 | 0.0 | 0.0 | 0.00 | 0.00 | 0.00 | 47 | 1011.3 |
| 20260506124214 | 60 | 176 | 0.0 | 0.0 | 0.00 | 0.00 | 0.00 | 47 | 1011.3 |
| 20260506123708 | 61 | 176 | 0.0 | 0.0 | 0.00 | 0.00 | 0.00 | 46 | 1011.2 |
| 20260506123201 | 60 | 175 | 0.0 | 0.0 | 0.00 | 0.00 | 0.00 | 47 | 1011.0 |
| 20260506122656 | 61 | 175 | 0.0 | 0.0 | 0.00 | 0.00 | 0.00 | 47 | 1011.0 |
| 20260506122150 | 60 | 175 | 0.0 | 0.0 | 0.00 | 0.00 | 0.00 | 47 | 1010.8 |
| 20260506121644 | 60 | 177 | 0.0 | 0.0 | 0.00 | 0.00 | 0.00 | 48 | 1010.7 |
| 20260506121138 | 60 | 178 | 0.0 | 0.0 | 0.00 | 0.00 | 0.00 | 48 | 1010.8 |
| 20260506120632 | 60 | 179 | 0.0 | 0.0 | 0.00 | 0.00 | 0.00 | 48 | 1010.8 |
| 20260506120125 | 60 | 178 | 0.0 | 0.0 | 0.00 | 0.00 | 0.00 | 47 | 1010.8 |
| 20260506115620 | 60 | 186 | 0.0 | 0.0 | 0.00 | 0.00 | 0.00 | 47 | 1010.7 |
| 20260506115113 | 60 | 186 | 0.0 | 0.0 | 0.00 | 0.00 | 0.00 | 47 | 1010.7 |
| 20260506114608 | 60 | 194 | 0.0 | 0.0 | 0.00 | 0.00 | 0.00 | 47 | 1010.7 |
| 20260506114102 | 60 | 132 | 0.0 | 0.0 | 0.00 | 0.00 | 0.00 | 47 | 1010.7 |
| 20260506114036 | 60 | 162 | 0.0 | 0.0 | 0.00 | 0.00 | 0.00 | 47 | 1010.7 |
| 20260506113050 | 60 | 179 | 0.0 | 0.0 | 0.00 | 0.00 | 0.00 | 47 | 1010.7 |
| 20260506112544 | 61 | 179 | 0.0 | 0.0 | 0.00 | 0.00 | 0.00 | 46 | 1010.6 |
| 20260506112530 | 61 | 179 | 0.0 | 0.0 | 0.00 | 0.00 | 0.00 | 46 | 1010.6 |
| 20260506112007 | 62 | 179 | 0.0 | 0.0 | 0.00 | 0.00 | 0.00 | 45 | 1010.6 |
| 20260506111026 | 61 | 172 | 0.0 | 0.0 | 0.00 | 0.00 | 0.00 | 45 | 1010.6 |
| 20260506110520 | 61 | 190 | 0.0 | 0.0 | 0.00 | 0.00 | 0.00 | 46 | 1010.6 |
| 20260506110014 | 61 | 190 | 0.0 | 0.0 | 0.00 | 0.00 | 0.00 | 45 | 1010.5 |
| 20260506105947 | 61 | 190 | 0.0 | 0.0 | 0.00 | 0.00 | 0.00 | 46 | 1010.5 |
| 20260506105002 | 61 | 193 | 0.0 | 0.9 | 0.00 | 0.00 | 0.00 | 47 | 1010.4 |
| 20260506104952 | 61 | 179 | 0.0 | 0.9 | 0.00 | 0.00 | 0.00 | 47 | 1010.4 |
| 20260506103950 | 61 | 187 | 0.0 | 0.0 | 0.00 | 0.00 | 0.00 | 47 | 1010.3 |
| 20260506103450 | 61 | 187 | 0.0 | 0.0 | 0.00 | 0.00 | 0.00 | 46 | 1010.3 |
| 20260506102947 | 61 | 185 | 0.0 | 0.0 | 0.00 | 0.00 | 0.00 | 46 | 1010.2 |
| 20260506102448 | 61 | 185 | 0.0 | 0.0 | 0.00 | 0.00 | 0.00 | 46 | 1010.3 |
| 20260506101947 | 62 | 189 | 0.0 | 0.0 | 0.00 | 0.00 | 0.00 | 46 | 1010.2 |